Date String (YYYY-MM-DD hh:mm:ss) UTC,Instrument flags,Ambient pressure (hPa),Sample flow (lpm),Bypass flow (lpm),Sample temperature (°C),Ambient temperature (°C),ASC tube jacket temperature (°C),LED temperature (°C),Box temperature (°C),Sample RH (%),Span deviation,Mass concentration (μg/m³),Mass concentration (μg/m³),Mass concentration (μg/m³)
DateTimeUTC,F1_M11,P_M11,Q1_M11,Q2_M11,T1_M11,T2_M11,T3_M11,T4_M11,T5_M11,U1_M11,ZSPAN_M11,X2_M11,X0_M11,X1_M11
2022-04-16 16:00:00,,0826.5,4.99,0.00,23.2,22.4,00.0,32.1,25.0,12.3,0000.0,0005.57,0010.66,0004.80
2022-04-16 16:01:00,,0826.5,5.00,0.00,23.3,22.4,00.0,32.1,25.0,12.2,0000.0,0005.56,0010.44,0004.79
2022-04-16 16:02:00,,0826.4,5.00,0.00,23.3,22.4,00.0,32.1,25.1,12.3,0000.0,0005.58,0010.57,0004.79
2022-04-16 16:03:00,,0826.4,5.00,0.00,23.3,22.5,00.0,32.1,25.1,12.2,0000.0,0005.57,0010.82,0004.78
2022-04-16 16:04:00,,0826.3,5.00,0.00,23.3,22.5,00.0,32.1,25.1,12.3,0000.0,0005.53,0011.61,0004.75
2022-04-16 16:05:00,,0826.3,5.00,0.00,23.3,22.5,00.0,32.1,25.1,12.2,0000.0,0005.56,0011.81,0004.74
2022-04-16 16:06:00,,0826.4,5.00,0.00,23.3,22.5,00.0,32.1,25.1,12.1,0000.0,0005.63,0011.64,0004.75
2022-04-16 16:07:00,,0826.3,5.00,0.00,23.3,22.5,00.0,32.2,25.1,12.2,0000.0,0005.68,0012.28,0004.76
2022-04-16 16:08:00,,0826.3,5.00,0.00,23.3,22.5,00.0,32.2,25.1,12.2,0000.0,0005.69,0013.00,0004.76
2022-04-16 16:09:00,,0826.3,4.99,0.00,23.3,22.5,00.0,32.2,25.1,12.1,0000.0,0005.68,0012.98,0004.77
2022-04-16 16:10:00,,0826.2,4.99,0.00,23.3,22.5,00.0,32.2,25.1,12.0,0000.0,0005.70,0012.83,0004.78
2022-04-16 16:11:00,,0826.3,5.00,0.00,23.3,22.5,00.0,32.2,25.1,12.1,0000.0,0005.69,0012.59,0004.78
2022-04-16 16:12:00,,0826.3,4.99,0.00,23.4,22.5,00.0,32.2,25.2,12.0,0000.0,0005.68,0012.98,0004.77
2022-04-16 16:13:00,,0826.3,5.00,0.00,23.4,22.5,00.0,32.2,25.2,11.9,0000.0,0005.66,0013.70,0004.76
2022-04-16 16:14:00,,0826.3,5.00,0.00,23.4,22.5,00.0,32.2,25.2,11.9,0000.0,0005.68,0014.36,0004.76
2022-04-16 16:15:00,,0826.3,5.00,0.00,23.4,22.5,00.0,32.2,25.1,11.9,0000.0,0005.69,0013.46,0004.76
2022-04-16 16:16:00,,0826.3,5.00,0.00,23.4,22.5,00.0,32.2,25.2,11.9,0000.0,0005.71,0013.47,0004.78
2022-04-16 16:17:00,,0826.3,5.01,0.00,23.4,22.5,00.0,32.2,25.1,12.0,0000.0,0005.70,0013.44,0004.78
2022-04-16 16:18:00,,0826.3,5.00,0.00,23.4,22.5,00.0,32.3,25.2,12.0,0000.0,0005.67,0012.93,0004.78
2022-04-16 16:19:00,,0826.3,5.00,0.00,23.4,22.6,00.0,32.3,25.2,11.9,0000.0,0005.63,0012.94,0004.77
2022-04-16 16:20:00,,0826.3,5.01,0.00,23.4,22.6,00.0,32.3,25.2,12.1,0000.0,0005.65,0012.67,0004.77
2022-04-16 16:21:00,,0826.3,4.99,0.00,23.4,22.6,00.0,32.3,25.2,12.2,0000.0,0005.66,0012.84,0004.76
2022-04-16 16:22:00,,0826.3,4.99,0.00,23.4,22.6,00.0,32.3,25.2,12.0,0000.0,0005.65,0012.80,0004.77
2022-04-16 16:23:00,,0826.3,5.00,0.00,23.4,22.6,00.0,32.3,25.2,11.9,0000.0,0005.65,0012.73,0004.78
2022-04-16 16:24:00,,0826.3,5.00,0.00,23.5,22.6,00.0,32.3,25.3,11.9,0000.0,0005.68,0012.49,0004.80
2022-04-16 16:25:00,,0826.3,5.00,0.00,23.5,22.6,00.0,32.3,25.3,11.9,0000.0,0005.66,0011.56,0004.81
2022-04-16 16:26:00,,0826.3,5.00,0.00,23.5,22.6,00.0,32.3,25.3,11.9,0000.0,0005.68,0011.80,0004.83
2022-04-16 16:27:00,,0826.2,5.00,0.00,23.5,22.6,00.0,32.3,25.3,11.8,0000.0,0005.72,0011.95,0004.84
2022-04-16 16:28:00,,0826.3,5.00,0.00,23.5,22.7,00.0,32.3,25.3,11.9,0000.0,0005.72,0012.34,0004.84
2022-04-16 16:29:00,,0826.2,4.99,0.00,23.5,22.7,00.0,32.4,25.3,11.9,0000.0,0005.69,0012.99,0004.85
2022-04-16 16:30:00,,0826.2,5.00,0.00,23.5,22.6,00.0,32.4,25.3,11.9,0000.0,0005.68,0012.86,0004.86
2022-04-16 16:31:00,,0826.2,5.00,0.00,23.5,22.6,00.0,32.4,25.3,11.9,0000.0,0005.67,0012.85,0004.86
2022-04-16 16:32:00,,0826.2,5.00,0.00,23.5,22.6,00.0,32.4,25.3,12.0,0000.0,0005.68,0013.39,0004.88
2022-04-16 16:33:00,,0826.2,5.01,0.00,23.5,22.6,00.0,32.4,25.3,11.9,0000.0,0005.71,0014.10,0004.89
2022-04-16 16:34:00,,0826.2,5.01,0.00,23.5,22.6,00.0,32.4,25.3,11.9,0000.0,0005.74,0013.78,0004.90
2022-04-16 16:35:00,,0826.2,4.99,0.00,23.5,22.6,00.0,32.4,25.3,12.1,0000.0,0005.75,0013.20,0004.91
2022-04-16 16:36:00,,0826.2,5.01,0.00,23.5,22.6,00.0,32.4,25.3,12.1,0000.0,0005.75,0013.16,0004.91
2022-04-16 16:37:00,,0826.1,4.99,0.00,23.5,22.6,00.0,32.4,25.2,12.0,0000.0,0005.73,0013.55,0004.92
2022-04-16 16:38:00,,0826.1,5.00,0.00,23.5,22.6,00.0,32.4,25.2,12.0,0000.0,0005.70,0014.25,0004.92
2022-04-16 16:39:00,,0826.2,5.02,0.00,23.5,22.6,00.0,32.4,25.2,11.8,0000.0,0005.72,0013.95,0004.92
2022-04-16 16:40:00,,0826.2,5.01,0.00,23.5,22.7,00.0,32.4,25.3,11.8,0000.0,0005.77,0013.98,0004.93
2022-04-16 16:41:00,,0826.1,5.00,0.00,23.5,22.7,00.0,32.4,25.3,11.8,0000.0,0005.82,0013.30,0004.94
2022-04-16 16:42:00,,0826.1,5.00,0.00,23.5,22.6,00.0,32.4,25.3,12.0,0000.0,0005.85,0013.47,0004.96
2022-04-16 16:43:00,,0826.1,4.99,0.00,23.5,22.7,00.0,32.4,25.3,12.0,0000.0,0005.84,0013.05,0004.95
2022-04-16 16:44:00,,0826.1,4.98,0.00,23.5,22.7,00.0,32.4,25.3,11.9,0000.0,0005.85,0012.50,0004.96
2022-04-16 16:45:00,,0826.1,5.00,0.00,23.5,22.7,00.0,32.4,25.3,11.8,0000.0,0005.84,0013.15,0004.96
2022-04-16 16:46:00,,0826.0,5.01,0.00,23.5,22.7,00.0,32.4,25.3,11.7,0000.0,0005.83,0013.52,0004.95
2022-04-16 16:47:00,,0826.0,5.00,0.00,23.5,22.7,00.0,32.4,25.3,11.8,0000.0,0005.87,0013.79,0004.96
2022-04-16 16:48:00,,0826.0,5.00,0.00,23.5,22.7,00.0,32.4,25.3,11.8,0000.0,0005.94,0013.71,0004.98
2022-04-16 16:49:00,,0826.1,4.99,0.00,23.6,22.7,00.0,32.4,25.4,11.9,0000.0,0005.96,0012.61,0005.00
2022-04-16 16:50:00,,0826.1,5.00,0.00,23.6,22.7,00.0,32.4,25.4,11.8,0000.0,0005.95,0013.04,0005.01
2022-04-16 16:51:00,,0826.1,5.00,0.00,23.6,22.8,00.0,32.4,25.4,11.7,0000.0,0005.93,0013.19,0005.02
2022-04-16 16:52:00,,0826.1,5.00,0.00,23.6,22.8,00.0,32.4,25.4,11.8,0000.0,0005.93,0013.55,0005.03
2022-04-16 16:53:00,,0826.1,5.00,0.00,23.6,22.8,00.0,32.4,25.4,11.7,0000.0,0005.90,0013.44,0005.03
2022-04-16 16:54:00,,0826.0,5.00,0.00,23.6,22.8,00.0,32.5,25.5,11.7,0000.0,0005.92,0013.42,0005.06
2022-04-16 16:55:00,,0826.0,5.00,0.00,23.6,22.8,00.0,32.5,25.5,11.8,0000.0,0005.91,0013.59,0005.05
2022-04-16 16:56:00,,0826.0,5.00,0.00,23.6,22.8,00.0,32.5,25.5,11.8,0000.0,0005.94,0013.12,0005.07
2022-04-16 16:57:00,,0826.0,5.01,0.00,23.7,22.8,00.0,32.5,25.5,11.8,0000.0,0005.95,0012.85,0005.09
2022-04-16 16:58:00,,0826.0,5.00,0.00,23.7,22.9,00.0,32.5,25.5,11.7,0000.0,0005.96,0013.63,0005.10
2022-04-16 16:59:00,,0826.0,5.00,0.00,23.7,22.9,00.0,32.5,25.5,11.9,0000.0,0005.95,0013.71,0005.09
